Tracking 26257 objects as of 4-Oct-2022
HD Live streaming from Space Station
objects crossing your sky now

GAOFEN 9 03

Track GAOFEN 9 03 now!
10-day predictions


NORAD ID: 45794
Int'l Code: 2020-039A
Perigee: 493.3 km
Apogee: 510.3 km
Inclination: 97.4 °
Period: 94.5 minutes
Semi major axis: 6872 km
RCS: Unknown
Launch date: June 17, 2020
Source: People's Republic of China (PRC)
Launch site: Jiuquan Satellite Launch Center, China (JSC)
aabbcc
Your satellite tracking list
Your tracking list is empty




NASA's NSSDC Master Catalog

Two Line Element Set (TLE):
1 45794U 20039A   22276.78952608  .00007049  00000-0  29577-3 0  9990
2 45794  97.4027  33.7336 0012372 209.6669 309.8332 15.23722575127667
Source of the keplerian elements: AFSPC